Home   Weather   Evansville   Past weeks

Flag for USA Past Weather in Evansville, Indiana, USA — Yesterday and Last 2 Weeks

Now
25 °F

Clear.


Feels Like: 25 °F
Forecast: 18 / 36 °F
Wind: No wind

Location: Evansville Regional Airport

Current Time: Dec 9, 2016 at 7:23:43 pm

Latest Report: Dec 9, 2016 at 6:54 pm


Visibility: 10 mi

Pressure: 30.60 "Hg

Humidity: 66%

Dew Point: 15 °F

Location of EvansvilleLocation

Past Weather in Evansville — Graph

°F

Evansville Temperature Yesterday

Maximum temperature yesterday: 34 °F (at 1:54 pm)
Minimum temperature yesterday: 25 °F (at 6:54 am)
Average temperature yesterday: 29 °F

High & Low Weather Summary for the Past Weeks

 TemperatureHumidityPressure
High64 °F (Nov 29, 2:54 pm)93% (Nov 28, 2:54 pm)30.66 "Hg (Nov 28, 2:54 pm)
Low22 °F (Dec 9, 3:54 am)41% (Nov 30, 10:54 am)29.36 "Hg (Nov 28, 4:54 pm)
Average41 °F71%30.11 "Hg
* Reported Nov 24 5:54 pm — Dec 9 5:54 pm, Evansville, Weather by CustomWeather, © 2016

Note: Actual official high and low records may vary slightly from our data, if they occured in-between our weather recording intervals... More about our weather records

Advertising

Evansville Weather History for the Previous 24 Hours

Scroll right to see more
 ConditionsComfort  
Time TempWeatherWind HumidityBarometerVisibility
5:54 pm
Fri, Dec 9
26 °FClear.3 mph60%30.60 "Hg10 mi
4:54 pm27 °FPassing clouds.3 mph58%30.60 "Hg10 mi
3:54 pm30 °FOvercast.7 mph51%30.62 "Hg10 mi
2:54 pm29 °FPartly sunny.5 mph54%30.61 "Hg10 mi
1:54 pm30 °FPartly sunny.6 mph51%30.60 "Hg10 mi
12:54 pm31 °FOvercast.N/A49%30.61 "Hg10 mi
11:54 am30 °FPassing clouds.No wind49%30.62 "Hg10 mi
10:54 am29 °FPartly sunny.7 mph51%30.64 "Hg10 mi
9:54 am26 °FOvercast.7 mph57%30.66 "Hg10 mi
8:54 am24 °FOvercast.6 mph62%30.66 "Hg10 mi
7:54 am24 °FOvercast.5 mph62%30.65 "Hg10 mi
6:54 am23 °FOvercast.5 mph65%30.63 "Hg10 mi
5:54 am23 °FOvercast.7 mph65%30.62 "Hg10 mi
4:54 am23 °FOvercast.6 mph65%30.61 "Hg10 mi
3:54 am22 °FPassing clouds.7 mph66%30.60 "Hg10 mi
2:54 am23 °FPassing clouds.6 mph63%30.60 "Hg10 mi
1:54 am26 °FOvercast.10 mph57%30.58 "Hg10 mi
12:54 am26 °FOvercast.8 mph57%30.57 "Hg10 mi
11:54 pm
Thu, Dec 8
27 °FOvercast.8 mph61%30.57 "Hg10 mi
10:54 pm27 °FOvercast.7 mph58%30.57 "Hg10 mi
9:54 pm27 °FOvercast.9 mph58%30.56 "Hg10 mi
8:54 pm27 °FOvercast.12 mph58%30.55 "Hg10 mi
7:54 pm27 °FOvercast.12 mph58%30.55 "Hg10 mi
Weather by CustomWeather, © 2016

See weather overviewHow to use our weather pages